[[{"header":{"parameterUnit":"m.s-1","parameterCategory":1,"la1":30.2991,"la2":30.254,"lo1":-89.0895,"lo2":-89.0444,"dy":0.0017,"dx":0.0017,"nx":28,"ny":28,"refTime":"2024-03-18T09:00:00:Z","depth":0,"parameterNumber":2,"parameterNumberName":"U-component_of_WINDS"},"data":[0,0,0,0,0,0,0,0,0,0,0,0,0,0,0,0,0,0,0,0,0,0,0,0,0,0,0,0,0,0,0,0,0,0,0,0,0,0,0,0,0,0,0,0,0,0,0,0,0,0,0,0,0,0,0,0,0,0,-3.6096,-3.6097,0,-3.6205,-3.6207,-3.6208,-3.6112,-3.6108,-3.6105,-3.6101,-3.6212,-3.6218,-3.6225,0,0,0,0,0,0,0,0,0,0,0,0,0,-3.58,-3.5806,-3.6096,-3.6097,-3.6098,-3.6205,-3.6207,-3.6208,-3.6113,-3.6108,-3.6104,-3.6099,-3.621,-3.6218,-3.6226,0,0,0,0,0,0,0,0,0,0,0,0,0,-3.5921,-3.5808,-3.6095,-3.6064,-3.6062,-3.6205,-3.6207,-3.6209,-3.6114,-3.6108,-3.6102,-3.6097,-3.6207,-3.6217,-3.6227,-3.6406,0,0,-3.6257,-3.6261,0,0,0,0,0,0,0,0,-3.5914,-3.5932,-3.6067,-3.6066,-3.6065,-3.6139,-3.6143,-3.6275,-3.6116,-3.6094,-3.6101,-3.6094,-3.6192,-3.6203,-3.6237,-3.6411,-3.6416,-3.6258,-3.6264,-3.6268,-3.6271,0,0,0,0,0,0,0,-3.5906,-3.5927,-3.6139,-3.6069,-3.6068,-3.6043,-3.6054,-3.6168,-3.6175,-3.6096,-3.6089,-3.6103,-3.6191,-3.6227,-3.6239,-3.6418,-3.6258,-3.6266,-3.6273,-3.6277,-3.6741,-3.6748,0,0,0,0,0,0,-3.5901,-3.592,-3.6135,-3.6142,-3.5973,-3.6053,-3.6065,-3.6121,-3.6174,-3.6176,-3.6108,-3.6099,-3.6213,-3.6227,-3.6242,-3.6454,-3.6268,-3.6277,-3.6283,-3.6735,-3.6743,-3.675,0,0,0,0,0,0,-3.5895,-3.5921,-3.6131,-3.603,-3.6054,-3.6064,-3.6128,-3.6126,-3.6163,-3.6183,-3.6184,-3.6145,-3.6209,-3.6228,-3.6365,-3.6457,-3.6282,-3.6291,-3.6728,-3.6738,-3.6746,-3.6881,0,0,0,0,0,0,-3.5887,-3.592,-3.5989,-3.6032,-3.606,-3.6254,-3.6134,-3.6133,-3.6181,-3.6169,-3.6218,-3.622,-3.6206,-3.6351,-3.6375,-3.6467,-3.6299,-3.6719,-3.6732,-3.6743,-3.6869,-3.6894,-3.6916,0,0,0,0,0,-3.5877,-3.6023,-3.5993,-3.602,-3.6147,-3.626,-3.6276,-3.6257,-3.6189,-3.6258,-3.627,-3.6218,-3.6443,-3.6366,-3.6392,-3.6489,-3.6714,-3.6728,-3.6742,-3.6858,-3.6889,-3.6915,0,0,0,0,0,0,-3.5992,-3.6028,-3.5996,-3.616,-3.6208,-3.6243,-3.633,-3.6291,-3.6359,-3.6345,-3.6318,-3.633,-3.6475,-3.6495,-3.6409,-3.6664,-3.6567,-3.6587,-3.6646,-3.6675,-3.6699,-3.6691,-3.6307,0,0,0,0,0,-3.6036,-3.6125,-3.6152,-3.6294,-3.6319,-3.6321,-3.6369,-3.6351,-3.6398,-3.6418,-3.644,-3.6488,-3.6569,-3.6623,-3.6698,-3.687,-3.6878,-3.6949,-3.6973,-3.6992,-3.7011,-3.7101,-3.7132,-3.6797,-3.6797,-3.6797,0,0,-3.6129,-3.6159,-3.6218,-3.6318,-3.6352,-3.6444,-3.6339,-3.6441,-3.6508,-3.6433,-3.6564,-3.6582,-3.6633,-3.6788,-3.6857,-3.6809,-3.7104,-3.701,-3.7026,-3.7034,-3.7119,-3.715,-3.7179,-3.6807,-3.6805,-3.6803,0,0,-3.6345,-3.6377,-3.6499,-3.6535,-3.6588,-3.6588,-3.6617,-3.6658,-3.6667,-3.6798,-3.6743,-3.6822,-3.6962,-3.7,-3.7038,-3.7265,-3.7219,-3.729,-3.7414,-3.7503,-3.7529,-3.7552,-3.7632,-3.7662,-3.7308,-3.7308,-3.7308,0,-3.6453,-3.659,-3.6566,-3.6672,-3.6717,-3.6652,-3.6774,-3.681,-3.6885,-3.6917,-3.6862,-3.7035,-3.7065,-3.7227,-3.7282,-3.7315,-3.7346,-3.7285,-3.7527,-3.755,-3.7572,-3.7648,-3.7678,-3.7316,-3.7315,-3.7314,-3.7314,0,-3.672,-3.6816,-3.6907,-3.6982,-3.7036,-3.715,-3.7141,-3.7199,-3.7175,-3.7179,-3.7312,-3.7345,-3.7425,-3.7462,-3.7439,-3.762,-3.7589,-3.7531,-3.7434,-3.7612,-3.7683,-3.7712,-3.7328,-3.7325,-3.7323,-3.7321,0,0,-3.7015,-3.7072,-3.7106,-3.7138,-3.719,-3.7263,-3.7372,-3.745,-3.75,-3.7553,-3.7643,-3.7761,-3.7707,-3.775,-3.7731,-3.7808,-3.7984,-3.774,-3.7741,-3.7784,-3.8183,-3.8227,-3.8261,-3.7953,-3.7959,-3.7963,-3.8179,0,-3.7233,-3.7424,-3.7404,-3.7585,-3.7671,-3.7609,-3.7704,-3.7745,-3.7752,-3.7825,-3.7831,-3.7915,-3.7838,-3.7863,-3.7937,-3.7947,-3.8064,-3.7931,-3.8036,-3.804,-3.8026,-3.8299,-3.8346,-3.8548,-3.8207,-3.8211,-3.8215,0,-3.7514,-3.7576,-3.7766,-3.7803,-3.7838,-3.7924,-3.7993,-3.8064,-3.8108,-3.8107,-3.8154,-3.812,-3.8227,-3.8126,-3.8272,-3.8182,-3.8223,-3.8234,-3.8241,-3.8252,-3.8139,-3.8316,-3.8613,-3.8643,-3.8258,-3.8255,-3.8252,0,-3.7709,-3.784,-3.797,-3.7999,-3.8046,-3.8107,-3.8129,-3.8167,-3.8215,-3.8274,-3.8304,-3.8375,-3.8415,-3.8469,-3.8455,-3.8382,-3.8604,-3.8502,-3.8605,-3.8606,-3.8657,-3.8654,-3.8964,-3.8682,-3.8682,-3.8681,-3.868,0,-3.7955,-3.8074,-3.8059,-3.8139,-3.8269,-3.8243,-3.8372,-3.8385,-3.842,-3.85,-3.845,-3.8526,-3.8502,-3.8576,-3.8565,-3.8687,-3.8705,-3.8706,-3.8702,-3.8711,-3.8711,-3.8739,-3.8725,-3.8689,-3.8687,-3.8686,-3.8684,0,-3.8197,-3.8192,-3.8329,-3.836,-3.8371,-3.8465,-3.8491,-3.8566,-3.8566,-3.8669,-3.8691,-3.8692,-3.8777,-3.8767,-3.8862,-3.8854,-3.9006,-3.8984,-3.8991,-3.8987,-3.909,-3.9081,-3.943,-3.9474,-3.9163,-3.9166,-3.9169,0,-3.8355,-3.8445,-3.8485,-3.8535,-3.8561,-3.8643,-3.8691,-3.8668,-3.8719,-3.8775,-3.8842,-3.8922,-3.8985,-3.9122,-3.9131,-3.9202,-3.9182,-3.9299,-3.9193,-3.9199,-3.9184,-3.9179,-3.9187,-3.9321,-3.9325,-3.9328,-3.933,0,-3.8636,-3.8628,-3.8699,-3.8769,-3.8827,-3.8881,-3.893,-3.8973,-3.8954,-3.9014,-3.91,-3.9149,-3.9244,-3.9324,-3.939,-3.9411,-3.9368,-3.9363,-3.9391,-3.9402,-3.9402,-3.9403,-3.9049,-3.9356,-3.9353,-3.9351,-3.935,-3.9349,-3.8841,-3.8916,-3.8956,-3.9036,-3.907,-3.9116,-3.9187,-3.9196,-3.9267,-3.9343,-3.9324,-3.9421,-3.946,-3.9545,-3.9572,-3.9646,-3.9603,-3.9643,-3.9653,-3.9664,-3.9676,-3.9389,-3.9658,-3.9657,-3.9656,-3.9656,-3.9655,0,-3.9119,-3.914,-3.9214,-3.9283,-3.9346,-3.9298,-3.9349,-3.9404,-3.949,-3.953,-3.9592,-3.9689,-3.9765,-3.9778,-3.985,-3.9906,-3.9888,-3.9926,-3.9922,-3.9927,-3.971,-3.9679,-3.994,-3.994,-3.9939,-3.9939,-3.9939,-3.9939,-3.9271,-3.9396,-3.9393,-3.9533,-3.9553,-3.9648,-3.968,-3.9721,-3.9753,-3.9864,-3.9927,-3.9935,-3.9963,-4.0036,-4.0103,-4.0104,-4.0133,-4.0179,-4.0173,-3.9971,-3.9943,-3.9916,-3.9886,-4.0186,-4.0186,-4.0384,-4.0385,-4.0387]},{"header":{"parameterUnit":"m.s-1","parameterCategory":1,"la1":30.2991,"la2":30.254,"lo1":-89.0895,"lo2":-89.0444,"dy":0.0017,"dx":0.0017,"nx":28,"ny":28,"refTime":"2024-03-18T09:00:00:Z","depth":0,"parameterNumber":3,"parameterNumberName":"V-component_of_WINDS"},"data":[0,0,0,0,0,0,0,0,0,0,0,0,0,0,0,0,0,0,0,0,0,0,0,0,0,0,0,0,0,0,0,0,0,0,0,0,0,0,0,0,0,0,0,0,0,0,0,0,0,0,0,0,0,0,0,0,0,0,-6.297,-6.2971,0,-6.3109,-6.3111,-6.3112,-6.303,-6.3026,-6.3022,-6.3018,-6.3157,-6.3164,-6.3171,0,0,0,0,0,0,0,0,0,0,0,0,0,-6.2626,-6.2633,-6.297,-6.2971,-6.2973,-6.3109,-6.3111,-6.3113,-6.303,-6.3026,-6.3021,-6.3016,-6.3155,-6.3163,-6.3172,0,0,0,0,0,0,0,0,0,0,0,0,0,-6.2771,-6.2635,-6.2969,-6.2949,-6.2948,-6.3108,-6.3111,-6.3113,-6.3031,-6.3025,-6.302,-6.3014,-6.3152,-6.3162,-6.3173,-6.3361,0,0,-6.3207,-6.3212,0,0,0,0,0,0,0,0,-6.2763,-6.2784,-6.295,-6.295,-6.295,-6.3046,-6.304,-6.3196,-6.3033,-6.3,-6.3018,-6.3011,-6.3125,-6.3138,-6.3177,-6.3367,-6.3373,-6.3208,-6.3215,-6.322,-6.3223,0,0,0,0,0,0,0,-6.2753,-6.2778,-6.3025,-6.2952,-6.2953,-6.293,-6.2944,-6.307,-6.3094,-6.3002,-6.2997,-6.3014,-6.3123,-6.3166,-6.3179,-6.3375,-6.3208,-6.3218,-6.3225,-6.3229,-6.3723,-6.3729,0,0,0,0,0,0,-6.2745,-6.277,-6.302,-6.3029,-6.284,-6.2941,-6.2957,-6.3021,-6.3092,-6.3097,-6.3019,-6.301,-6.315,-6.3166,-6.3184,-6.3406,-6.322,-6.323,-6.3236,-6.3716,-6.3724,-6.3731,0,0,0,0,0,0,-6.2738,-6.2769,-6.3015,-6.2898,-6.2927,-6.2954,-6.3026,-6.3027,-6.307,-6.3105,-6.3108,-6.3059,-6.3146,-6.3168,-6.3317,-6.341,-6.3235,-6.3245,-6.3709,-6.3719,-6.3728,-6.3853,0,0,0,0,0,0,-6.2729,-6.2767,-6.284,-6.29,-6.2934,-6.3148,-6.3032,-6.3034,-6.3089,-6.3079,-6.3143,-6.3148,-6.3143,-6.3301,-6.3328,-6.3422,-6.3254,-6.37,-6.3713,-6.3725,-6.3841,-6.3866,-6.3887,0,0,0,0,0,-6.2717,-6.287,-6.2844,-6.2875,-6.3027,-6.3153,-6.3172,-6.3165,-6.3097,-6.317,-6.3192,-6.3146,-6.3395,-6.3317,-6.3347,-6.3445,-6.3695,-6.371,-6.3724,-6.383,-6.3861,-6.3887,0,0,0,0,0,0,-6.2819,-6.2877,-6.285,-6.3027,-6.3086,-6.3139,-6.3231,-6.3198,-6.3276,-6.3263,-6.3248,-6.3264,-6.3418,-6.3446,-6.3358,-6.3628,-6.3534,-6.3555,-6.3605,-6.3634,-6.3657,-6.3647,-6.3263,0,0,0,0,0,-6.2862,-6.2962,-6.3007,-6.3158,-6.3189,-6.3205,-6.326,-6.3249,-6.3309,-6.3333,-6.3366,-6.3425,-6.3516,-6.3577,-6.3663,-6.3844,-6.3855,-6.3926,-6.3949,-6.3968,-6.3987,-6.4082,-6.4113,-6.3779,-6.3779,-6.3779,0,0,-6.2952,-6.2996,-6.306,-6.318,-6.3224,-6.3326,-6.3227,-6.3339,-6.3414,-6.335,-6.3492,-6.3518,-6.3582,-6.3748,-6.3822,-6.3776,-6.4081,-6.3987,-6.4002,-6.401,-6.41,-6.4132,-6.416,-6.3789,-6.3787,-6.3785,0,0,-6.3168,-6.3213,-6.3343,-6.3389,-6.3458,-6.3466,-6.3498,-6.3556,-6.3571,-6.3714,-6.3667,-6.3754,-6.3912,-6.3959,-6.4004,-6.4234,-6.4193,-6.4262,-6.4384,-6.4477,-6.4503,-6.4526,-6.4606,-6.4636,-6.428,-6.4281,-6.4281,0,-6.3272,-6.3425,-6.3414,-6.3529,-6.3582,-6.3529,-6.3659,-6.3704,-6.3796,-6.3833,-6.378,-6.3975,-6.4015,-6.4189,-6.4245,-6.4283,-6.4316,-6.4255,-6.45,-6.4523,-6.4545,-6.4621,-6.4652,-6.4288,-6.4287,-6.4287,-6.4286,0,-6.3547,-6.3653,-6.375,-6.3841,-6.3904,-6.4027,-6.4032,-6.4097,-6.4079,-6.4093,-6.4237,-6.4282,-6.4375,-6.4415,-6.4399,-6.4587,-6.4555,-6.4502,-6.4407,-6.4585,-6.4656,-6.4685,-6.43,-6.4297,-6.4294,-6.4292,0,0,-6.3833,-6.3915,-6.3951,-6.399,-6.406,-6.4141,-6.4259,-6.4351,-6.4406,-6.447,-6.4568,-6.4701,-6.4651,-6.4702,-6.469,-6.4771,-6.4948,-6.4707,-6.4708,-6.4749,-6.5154,-6.5194,-6.5228,-6.4921,-6.4927,-6.4931,-6.5148,0,-6.4053,-6.4261,-6.4253,-6.4446,-6.4543,-6.4492,-6.4594,-6.4647,-6.4662,-6.4744,-6.476,-6.4854,-6.4782,-6.4812,-6.489,-6.491,-6.5029,-6.4894,-6.501,-6.5014,-6.4995,-6.5266,-6.5309,-6.5512,-6.5176,-6.5181,-6.5185,0,-6.4337,-6.4412,-6.4615,-6.4668,-6.4708,-6.4801,-6.4882,-6.4962,-6.502,-6.5024,-6.508,-6.5054,-6.5171,-6.5072,-6.5231,-6.514,-6.5186,-6.5202,-6.521,-6.522,-6.511,-6.5283,-6.5577,-6.5607,-6.5229,-6.5225,-6.5222,0,-6.4524,-6.4675,-6.4815,-6.485,-6.4917,-6.4982,-6.5012,-6.5064,-6.5119,-6.5189,-6.5224,-6.5307,-6.5352,-6.5416,-6.5412,-6.5341,-6.5573,-6.5474,-6.5578,-6.5578,-6.563,-6.5626,-6.5934,-6.5661,-6.566,-6.566,-6.5659,0,-6.4769,-6.4895,-6.4899,-6.4986,-6.5124,-6.5112,-6.5249,-6.5272,-6.5318,-6.5406,-6.5366,-6.5449,-6.5439,-6.5522,-6.552,-6.565,-6.5671,-6.5677,-6.5675,-6.5681,-6.568,-6.5711,-6.5696,-6.5668,-6.5666,-6.5664,-6.5663,0,-6.5002,-6.501,-6.5159,-6.5209,-6.5224,-6.5324,-6.5365,-6.5445,-6.5456,-6.5568,-6.5593,-6.561,-6.5705,-6.5707,-6.5816,-6.5814,-6.5973,-6.5955,-6.5954,-6.5951,-6.6054,-6.6044,-6.6392,-6.6436,-6.6135,-6.6138,-6.614,0,-6.5158,-6.5254,-6.5313,-6.537,-6.5404,-6.5496,-6.5551,-6.5541,-6.56,-6.5671,-6.5742,-6.5833,-6.5906,-6.606,-6.608,-6.6163,-6.6146,-6.6262,-6.6158,-6.616,-6.6146,-6.614,-6.6149,-6.6283,-6.6286,-6.6289,-6.6291,0,-6.5434,-6.5432,-6.5514,-6.5597,-6.5664,-6.5728,-6.5788,-6.5836,-6.5833,-6.59,-6.5997,-6.6054,-6.6164,-6.6255,-6.6334,-6.6362,-6.6326,-6.6323,-6.6351,-6.6358,-6.6353,-6.6356,-6.6009,-6.6315,-6.6313,-6.6311,-6.631,-6.6309,-6.5632,-6.5713,-6.5768,-6.5859,-6.5903,-6.5959,-6.6036,-6.6056,-6.6137,-6.6227,-6.6216,-6.6323,-6.6374,-6.6477,-6.6512,-6.6594,-6.6554,-6.6595,-6.6605,-6.6615,-6.6626,-6.634,-6.6609,-6.6608,-6.6607,-6.6607,-6.6606,0,-6.5904,-6.5936,-6.602,-6.6105,-6.6176,-6.6136,-6.6199,-6.626,-6.6356,-6.6407,-6.6479,-6.6589,-6.6676,-6.6702,-6.6785,-6.6846,-6.6831,-6.6868,-6.6863,-6.687,-6.6658,-6.6625,-6.6879,-6.6878,-6.6878,-6.6878,-6.6878,-6.6878,-6.6055,-6.619,-6.6194,-6.6349,-6.6379,-6.6485,-6.6524,-6.6574,-6.6615,-6.674,-6.6812,-6.6829,-6.6869,-6.6955,-6.7031,-6.7037,-6.7068,-6.7112,-6.7111,-6.6912,-6.6885,-6.6859,-6.6828,-6.712,-6.712,-6.7315,-6.7317,-6.7318]}]]